Location: Cahas Mountain Overlook
(37.0833°N, 80.1000°W)
Time: 11:04:00
(UTC-04:00)

A-11 Canister half - Pass Details

Date: 10 February 2026
Orbit: 1524 x 1683 km, 47.3° (Epoch: 16 March)

Event Time Altitude Azimuth Distance (km) Brightness Sun altitude
Rises 22:59:03 0° 296° (WNW) 4,675 12.0 -58.6°
Reaches altitude 10° 23:02:11 10° 301° (WNW) 3,697 11.3 -59.1°
Enters shadow 23:03:39 16° 305° (NW) 3,259 11.0 -59.3°
